[[{"header":{"parameterUnit":"m.s-1","parameterCategory":1,"la1":30.2991,"la2":30.254,"lo1":-89.0895,"lo2":-89.0444,"dy":0.0017,"dx":0.0017,"nx":28,"ny":28,"refTime":"2025-01-24T03:00:00:Z","depth":0,"parameterNumber":2,"parameterNumberName":"U-component_of_WINDS"},"data":[0,0,0,0,0,0,0,0,0,0,0,0,0,0,0,0,0,0,0,0,0,0,0,0,0,0,0,0,0,0,0,0,0,0,0,0,0,0,0,0,0,0,0,0,0,0,0,0,0,0,0,0,0,0,0,0,0,0,0.4501,0.45,0,0.443,0.4429,0.4429,0.4412,0.4413,0.4413,0.4414,0.4338,0.4336,0.4333,0,0,0,0,0,0,0,0,0,0,0,0,0,0.4619,0.4617,0.4501,0.45,0.4499,0.443,0.4429,0.4428,0.4412,0.4413,0.4413,0.4414,0.4339,0.4336,0.4333,0,0,0,0,0,0,0,0,0,0,0,0,0,0.456,0.4617,0.4501,0.4483,0.4481,0.4431,0.4429,0.4428,0.4412,0.4413,0.4414,0.4414,0.434,0.4336,0.4333,0.4295,0,0,0.4321,0.432,0,0,0,0,0,0,0,0,0.4563,0.4556,0.4487,0.4484,0.4482,0.4431,0.4443,0.4383,0.4412,0.4438,0.4414,0.4415,0.4368,0.4362,0.4347,0.4291,0.4288,0.4321,0.4319,0.4317,0.4316,0,0,0,0,0,0,0,0.4568,0.4559,0.4473,0.4486,0.4482,0.4477,0.447,0.4432,0.44,0.4436,0.4434,0.4426,0.4367,0.4351,0.4345,0.4287,0.4321,0.4318,0.4316,0.4314,0.4195,0.4194,0,0,0,0,0,0,0.4575,0.4562,0.4475,0.4471,0.4525,0.4475,0.4466,0.4446,0.44,0.4394,0.4426,0.4426,0.4357,0.435,0.4343,0.4294,0.4317,0.4314,0.4312,0.4196,0.4195,0.4194,0,0,0,0,0,0,0.4578,0.4568,0.4478,0.4516,0.4504,0.4472,0.445,0.4445,0.4428,0.4393,0.4387,0.4416,0.4357,0.4348,0.4307,0.4291,0.4312,0.4309,0.4197,0.4195,0.4194,0.4198,0,0,0,0,0,0,0.4581,0.4569,0.4555,0.4516,0.4502,0.4444,0.4449,0.4443,0.4422,0.4422,0.4381,0.4375,0.4357,0.4312,0.4303,0.4287,0.4306,0.4198,0.4196,0.4195,0.4199,0.4197,0.4195,0,0,0,0,0,0.4586,0.4558,0.4554,0.4544,0.4484,0.4444,0.4436,0.4416,0.4421,0.4406,0.4383,0.4377,0.4295,0.4308,0.4298,0.428,0.4199,0.4197,0.4195,0.42,0.4197,0.4195,0,0,0,0,0,0,0.4595,0.4553,0.4548,0.4507,0.4479,0.4441,0.4422,0.4414,0.4383,0.4384,0.436,0.4351,0.4311,0.4291,0.4307,0.424,0.4247,0.4243,0.4254,0.4252,0.425,0.4255,0.4303,0,0,0,0,0,0.4593,0.4564,0.4528,0.4496,0.4482,0.4454,0.4436,0.4423,0.4393,0.4381,0.4354,0.4324,0.4292,0.4271,0.4239,0.4196,0.4186,0.4179,0.4177,0.4175,0.4171,0.4146,0.4142,0.4187,0.4187,0.4187,0,0,0.4587,0.4561,0.4544,0.4497,0.4474,0.4444,0.4444,0.4413,0.4389,0.4375,0.4335,0.4315,0.4279,0.4237,0.4217,0.422,0.4157,0.4172,0.4172,0.4168,0.4143,0.4139,0.4136,0.4185,0.4186,0.4186,0,0,0.4561,0.4539,0.4509,0.4486,0.4451,0.4432,0.4425,0.4388,0.4374,0.4333,0.4322,0.4293,0.4238,0.4213,0.4193,0.4157,0.4149,0.4148,0.4136,0.4112,0.4109,0.4105,0.4091,0.4087,0.4144,0.4144,0.4144,0,0.4558,0.4513,0.4494,0.4463,0.4442,0.4429,0.4397,0.4376,0.4332,0.4317,0.4321,0.425,0.4226,0.4177,0.4168,0.4153,0.4143,0.4152,0.4111,0.4107,0.4104,0.409,0.4085,0.4144,0.4144,0.4144,0.4144,0,0.4511,0.448,0.446,0.4418,0.4395,0.4364,0.4339,0.4318,0.4307,0.4288,0.4246,0.4216,0.4177,0.4165,0.4154,0.4114,0.4117,0.4116,0.4122,0.41,0.4087,0.4081,0.4144,0.4144,0.4144,0.4144,0,0,0.4489,0.4437,0.443,0.4411,0.4371,0.4346,0.4314,0.4277,0.4258,0.4228,0.42,0.4153,0.4152,0.4129,0.4115,0.4094,0.4066,0.4096,0.4094,0.409,0.4019,0.4019,0.4013,0.4061,0.406,0.4059,0.4021,0,0.4457,0.44,0.4382,0.4334,0.4304,0.429,0.4262,0.4234,0.4215,0.4186,0.4165,0.4132,0.4133,0.4119,0.4098,0.4074,0.4051,0.4077,0.4033,0.4032,0.4041,0.4007,0.4007,0.3973,0.4016,0.4015,0.4015,0,0.4413,0.4383,0.4332,0.4295,0.4282,0.4257,0.4221,0.4194,0.4161,0.4149,0.4123,0.4111,0.4075,0.4084,0.4034,0.4052,0.4033,0.4018,0.4016,0.4011,0.4021,0.3999,0.3961,0.3956,0.4007,0.4007,0.4008,0,0.4401,0.4347,0.431,0.4294,0.425,0.4233,0.4213,0.4182,0.416,0.4129,0.4114,0.4079,0.4059,0.4031,0.4009,0.4017,0.396,0.3967,0.3947,0.3948,0.3935,0.3936,0.3893,0.3925,0.3925,0.3925,0.3925,0,0.4367,0.4336,0.4303,0.428,0.4245,0.4223,0.4188,0.4168,0.414,0.4112,0.4098,0.4071,0.4044,0.4014,0.3996,0.3956,0.3948,0.3936,0.3931,0.3936,0.3938,0.3923,0.3924,0.3924,0.3924,0.3924,0.3924,0,0.4347,0.4324,0.4282,0.4244,0.4234,0.4209,0.4176,0.4153,0.4133,0.4098,0.4088,0.4057,0.402,0.3996,0.3949,0.3937,0.3893,0.389,0.3904,0.3902,0.3883,0.3885,0.3828,0.3819,0.3858,0.3858,0.3857,0,0.4326,0.4302,0.4262,0.4242,0.4223,0.4192,0.417,0.4148,0.4126,0.4086,0.4067,0.403,0.3998,0.394,0.3913,0.3876,0.3871,0.3854,0.3865,0.3871,0.3869,0.3871,0.3868,0.3852,0.3851,0.3851,0.3851,0,0.4292,0.4282,0.4251,0.4217,0.4191,0.4163,0.4134,0.4118,0.4091,0.4066,0.4029,0.4005,0.3957,0.3919,0.388,0.3859,0.385,0.3848,0.3841,0.3845,0.3854,0.3848,0.3898,0.3849,0.3849,0.3849,0.3849,0.3849,0.427,0.4248,0.4216,0.4182,0.4158,0.4131,0.4107,0.4085,0.4053,0.4013,0.4002,0.3963,0.3929,0.3876,0.3854,0.3823,0.3824,0.3815,0.3812,0.381,0.3809,0.386,0.3816,0.3816,0.3816,0.3816,0.3816,0,0.4234,0.4213,0.4182,0.4142,0.4115,0.411,0.4078,0.4055,0.4021,0.3992,0.3961,0.3918,0.3881,0.3851,0.3813,0.3793,0.3788,0.3784,0.3784,0.3779,0.3811,0.382,0.3789,0.3789,0.3789,0.3789,0.3789,0.3789,0.4212,0.4173,0.4159,0.4108,0.4087,0.4049,0.4031,0.4006,0.3982,0.3934,0.3904,0.3885,0.3854,0.3814,0.378,0.3772,0.3758,0.3754,0.3745,0.3775,0.3777,0.378,0.3789,0.3752,0.3752,0.3717,0.3716,0.3716]},{"header":{"parameterUnit":"m.s-1","parameterCategory":1,"la1":30.2991,"la2":30.254,"lo1":-89.0895,"lo2":-89.0444,"dy":0.0017,"dx":0.0017,"nx":28,"ny":28,"refTime":"2025-01-24T03:00:00:Z","depth":0,"parameterNumber":3,"parameterNumberName":"V-component_of_WINDS"},"data":[0,0,0,0,0,0,0,0,0,0,0,0,0,0,0,0,0,0,0,0,0,0,0,0,0,0,0,0,0,0,0,0,0,0,0,0,0,0,0,0,0,0,0,0,0,0,0,0,0,0,0,0,0,0,0,0,0,0,-2.3441,-2.3442,0,-2.3534,-2.3536,-2.3537,-2.3535,-2.3534,-2.3533,-2.3532,-2.3628,-2.3631,-2.3635,0,0,0,0,0,0,0,0,0,0,0,0,0,-2.3262,-2.3265,-2.3441,-2.3442,-2.3443,-2.3534,-2.3536,-2.3537,-2.3536,-2.3534,-2.3533,-2.3531,-2.3626,-2.3631,-2.3635,0,0,0,0,0,0,0,0,0,0,0,0,0,-2.3346,-2.3266,-2.3441,-2.3454,-2.3456,-2.3534,-2.3536,-2.3537,-2.3536,-2.3534,-2.3532,-2.353,-2.3625,-2.363,-2.3636,-2.3708,0,0,-2.3653,-2.3655,0,0,0,0,0,0,0,0,-2.3341,-2.3352,-2.345,-2.3453,-2.3455,-2.3521,-2.3508,-2.3594,-2.3536,-2.3506,-2.3532,-2.353,-2.3594,-2.3602,-2.3624,-2.3712,-2.3716,-2.3653,-2.3657,-2.3659,-2.3661,0,0,0,0,0,0,0,-2.3335,-2.3348,-2.3478,-2.3452,-2.3455,-2.3455,-2.3465,-2.3524,-2.3559,-2.3508,-2.3508,-2.3519,-2.3595,-2.3618,-2.3626,-2.3718,-2.3653,-2.3658,-2.3662,-2.3664,-2.3871,-2.3873,0,0,0,0,0,0,-2.3327,-2.3344,-2.3475,-2.3481,-2.3392,-2.346,-2.3471,-2.3502,-2.3558,-2.3565,-2.3521,-2.3519,-2.361,-2.3619,-2.3629,-2.3717,-2.3659,-2.3664,-2.3668,-2.3868,-2.3871,-2.3873,0,0,0,0,0,0,-2.3323,-2.3338,-2.3471,-2.3412,-2.3429,-2.3465,-2.35,-2.3505,-2.3528,-2.3568,-2.3574,-2.3538,-2.3608,-2.3621,-2.3688,-2.372,-2.3667,-2.3672,-2.3866,-2.3869,-2.3872,-2.3893,0,0,0,0,0,0,-2.3318,-2.3337,-2.3364,-2.3413,-2.3432,-2.3529,-2.3502,-2.3508,-2.3538,-2.3536,-2.3586,-2.3592,-2.3608,-2.368,-2.3694,-2.3727,-2.3676,-2.3863,-2.3867,-2.3871,-2.389,-2.3897,-2.3903,0,0,0,0,0,-2.3311,-2.3367,-2.3366,-2.3382,-2.3467,-2.353,-2.3542,-2.3558,-2.354,-2.3568,-2.3594,-2.3591,-2.3715,-2.3687,-2.3702,-2.3738,-2.3861,-2.3866,-2.3871,-2.3887,-2.3896,-2.3903,0,0,0,0,0,0,-2.3321,-2.3373,-2.3373,-2.3445,-2.3484,-2.353,-2.3566,-2.3567,-2.3611,-2.3607,-2.3626,-2.3638,-2.3705,-2.3728,-2.3696,-2.3811,-2.3786,-2.3794,-2.3793,-2.3801,-2.3808,-2.38,-2.3681,0,0,0,0,0,-2.3332,-2.3378,-2.3422,-2.3481,-2.3501,-2.353,-2.3558,-2.3568,-2.3608,-2.3624,-2.3655,-2.3694,-2.3742,-2.3773,-2.3819,-2.3894,-2.3905,-2.3926,-2.3932,-2.3937,-2.3944,-2.3986,-2.3996,-2.3889,-2.3889,-2.3889,0,0,-2.3354,-2.3388,-2.3417,-2.3484,-2.3515,-2.3563,-2.3544,-2.3595,-2.3631,-2.3632,-2.3697,-2.3721,-2.3766,-2.3837,-2.387,-2.3859,-2.3976,-2.3943,-2.3947,-2.3951,-2.3992,-2.4002,-2.4011,-2.3892,-2.3892,-2.3891,0,0,-2.3419,-2.345,-2.3503,-2.3535,-2.3581,-2.3601,-2.3613,-2.366,-2.3676,-2.3742,-2.3743,-2.3787,-2.3869,-2.3901,-2.3928,-2.4006,-2.4005,-2.4021,-2.4055,-2.4095,-2.4103,-2.4111,-2.4139,-2.4149,-2.4028,-2.4028,-2.4028,0,-2.3441,-2.3514,-2.3531,-2.3583,-2.3613,-2.3616,-2.367,-2.37,-2.3759,-2.378,-2.3766,-2.387,-2.39,-2.3979,-2.3998,-2.402,-2.4036,-2.4015,-2.4101,-2.4108,-2.4116,-2.4143,-2.4153,-2.4029,-2.4029,-2.4029,-2.4029,0,-2.3539,-2.3589,-2.3627,-2.3684,-2.3718,-2.3771,-2.3796,-2.3829,-2.3836,-2.3857,-2.3924,-2.3961,-2.4015,-2.4034,-2.4041,-2.4115,-2.4106,-2.4097,-2.4072,-2.4127,-2.4153,-2.4164,-2.4032,-2.4031,-2.403,-2.403,0,0,-2.3612,-2.3679,-2.3692,-2.3719,-2.3771,-2.381,-2.3863,-2.3916,-2.3944,-2.3985,-2.4031,-2.41,-2.4092,-2.4122,-2.4133,-2.4169,-2.4229,-2.4155,-2.4156,-2.4168,-2.4312,-2.4319,-2.4331,-2.4229,-2.4231,-2.4232,-2.4309,0,-2.3683,-2.3778,-2.3795,-2.3878,-2.3925,-2.3929,-2.3975,-2.4012,-2.4034,-2.4077,-2.41,-2.4149,-2.4134,-2.4153,-2.4188,-2.4214,-2.4258,-2.4209,-2.4271,-2.4273,-2.426,-2.4345,-2.4352,-2.4422,-2.4319,-2.4321,-2.4322,0,-2.3779,-2.3822,-2.391,-2.3956,-2.3976,-2.4018,-2.4068,-2.4109,-2.4151,-2.4164,-2.4199,-2.4206,-2.4262,-2.4235,-2.4313,-2.4279,-2.4305,-2.4322,-2.4325,-2.4332,-2.4301,-2.4353,-2.4445,-2.4456,-2.4338,-2.4337,-2.4335,0,-2.3824,-2.3904,-2.3967,-2.399,-2.4045,-2.4074,-2.4099,-2.4139,-2.417,-2.4214,-2.4234,-2.4284,-2.4311,-2.435,-2.437,-2.4349,-2.4447,-2.4421,-2.4459,-2.4459,-2.448,-2.4478,-2.4577,-2.4497,-2.4497,-2.4496,-2.4496,0,-2.3901,-2.3955,-2.3988,-2.4027,-2.4087,-2.4107,-2.4166,-2.419,-2.4226,-2.4269,-2.4276,-2.4317,-2.4341,-2.4386,-2.4402,-2.4464,-2.4477,-2.4489,-2.4493,-2.4488,-2.4487,-2.4506,-2.4502,-2.4499,-2.4499,-2.4498,-2.4498,0,-2.3962,-2.3986,-2.4055,-2.4102,-2.4115,-2.4158,-2.4198,-2.4236,-2.4257,-2.4312,-2.4326,-2.436,-2.4413,-2.4437,-2.4502,-2.4513,-2.4584,-2.4584,-2.457,-2.4571,-2.4608,-2.4604,-2.4722,-2.4739,-2.4648,-2.4649,-2.4649,0,-2.401,-2.4051,-2.4102,-2.4132,-2.4157,-2.4205,-2.4236,-2.4257,-2.429,-2.4342,-2.4374,-2.4427,-2.447,-2.4555,-2.4585,-2.4635,-2.4637,-2.4675,-2.4644,-2.4639,-2.4638,-2.4635,-2.4639,-2.468,-2.4681,-2.4682,-2.4682,0,-2.4092,-2.4102,-2.4147,-2.4197,-2.4235,-2.4275,-2.4314,-2.4338,-2.4365,-2.4402,-2.4456,-2.449,-2.4557,-2.461,-2.4662,-2.4687,-2.469,-2.4692,-2.4703,-2.4699,-2.4689,-2.4696,-2.4585,-2.4689,-2.4688,-2.4688,-2.4688,-2.4687,-2.4148,-2.4185,-2.4227,-2.4277,-2.4309,-2.4346,-2.4384,-2.441,-2.4455,-2.4511,-2.4521,-2.4579,-2.4621,-2.4691,-2.4719,-2.4765,-2.4756,-2.4772,-2.4776,-2.478,-2.4783,-2.4682,-2.4774,-2.4774,-2.4774,-2.4774,-2.4774,0,-2.423,-2.4258,-2.4304,-2.4359,-2.4399,-2.4397,-2.4441,-2.4474,-2.4525,-2.4564,-2.4607,-2.467,-2.4721,-2.4756,-2.4808,-2.4838,-2.484,-2.4851,-2.4849,-2.4855,-2.4787,-2.4772,-2.4848,-2.4848,-2.4848,-2.4848,-2.4848,-2.4848,-2.4278,-2.4341,-2.4356,-2.4435,-2.4462,-2.4519,-2.4544,-2.4578,-2.4609,-2.4679,-2.4722,-2.4744,-2.4781,-2.4836,-2.4884,-2.4892,-2.4911,-2.4922,-2.4931,-2.4867,-2.486,-2.4852,-2.4838,-2.4926,-2.4926,-2.4995,-2.4995,-2.4996]}]]